SCP
0 0 0 0 0 0 0 0 0 0 0 0 0 0 0 0 0 0 0 0 0 0 0 0 0 0 0 0 0 0 0 0 0 0 0 0 0 0 0 0 0 0 0 0 0 0 0 0 0 0 0 0 0 0
0 0 0 0 0 0 0 0 0 0 0 0 0 0 0 0 0 0 0 0 0 0 0 0 0 0 0 0 0 0 0 0 0 0 0 0 0 0 0 0 0 0 0 0 0 0 0 0 0 0 0 0 0 0
0 0 0 0 0 0 0 0 0 0 0 0 0 0 0 0 0 0 0 0 0 0 0 0 0 0 0 0 0 0 0 0 0 0 0 0 0 0 0 0 0 0 0 0 0 0 0 0 0 0 0 0 0 0
0 0 0 0 0 0 0 0 0 0 0 0 0 0 0 0 0 0 0 0 0 0 0 0 0 0 0 0 0 0 0 0 0 0 0 0 0 0 0 0 0 0 0 0 0 0 0 0 0 0 0 0 0 0
0 0 0 0 0 0 0 0 0 0 0 0 0 0 0 0 0 0 0 0 0 0 0 0 0 0 0 0 0 0 0 0 0 0 0 0 0 0 0 0 0 0 0 0 0 0 0 0 0 0 0 0 0 0
0 0 0 0 0 0 0 0 0 0 0 0 0 0 0 0 0 0 0 0 0 0 0 0 0 0 0 0 0 0 0 0 0 0 0 0 0 0 0 0 0 0 0 0 0 0 0 0 0 0 0 0 0 0
0 0 0 0 0 0 0 0 0 0 0 0 0 0 0 0 0 0 0 0 0 0 0 0 0 0 0 0 0 0 0 0 0 0 0 0 0 0 0 0 0 0 0 0 0 0 0 0 0 0 0 0 0 0
0 0 0 0 0 0 0 0 0 0 0 0 0 0 0 0 0 0 0 0 0 0 0 0 0 0 0 0 0 0 0 0 0 0 0 0 0 0 0 0 0 0 0 0 0 0 0 0 0 0 0 0 0 0
0 0 0 0 0 0 0 0 0 0 0 0 0 0 0 0 0 0 0 0 0 0 0 0 0 0 0 0 0 0 0 0 0 0 0 0 0 0 0 0 0 0 0 0 0 0 0 0 0 0 0 0 0 -0
0 0 0 0 0 0 0 0 0 0 0 0 0 0 0 0 0 0 0 0 0 0 0 0 0 0 0 0 0 0 0 0 0 0 0 0 0 0 0 0 0 0 0 0 0 0 0 0 0 0 0 0 0 0
0 0 0 0 0 0 0 0 0 0 0 0 0 0 0 0 0 0 0 0 0 0 0 0 0 0 0 0 0 0 0 0 0 0 0 0 0 0 0 0 0 0 0 0 0 0 0 0 0 0 0 0 0 0
0 0 0 0 0 0 0 0 0 0 0 0 0 0 0 0 0 0 0 0 0 0 0 0 0 0 0 0 0 0 0 0 0 0 0 0 0 0 0 0 0 0 0 0 0 0 0 0 0 0 0 0 0 -0
0 0 0 0 0 0 0 0 0 0 0 0 0 0 0 0 0 0 0 0 0 0 0 0 0 0 0 0 0 0 0 0 0 0 0 0 0 0 0 0 0 0 0 0 0 0 0 0 0 0 0 0 -0 -0
0 0 0 0 0 0 0 0 0 0 0 0 0 0 0 0 0 0 0 0 0 0 0 0 0 0 0 0 0 0 0 0 0 0 0 0 0 0 0 0 0 0 0 0 0 0 0 0 0 0 0 0 -0 -0
0 0 0 0 0 0 0 0 0 0 0 0 0 0 0 0 0 0 0 0 0 0 0 0 0 0 0 0 0 0 0 0 0 0 0 0 0 0 0 0 0 0 0 0 0 0 0 0 0 0 0 0 -0 -0
0 0 0 0 0 0 0 0 0 0 0 0 0 0 0 0 0 0 0 0 0 0 0 0 0 0 0 0 0 0 0 0 0 0 0 0 0 0 0 0 0 0 0 0 0 0 0 0 0 0 0 -0 -0 -0
0 0 0 0 0 0 0 0 0 0 0 0 0 0 0 0 0 0 0 0 0 0 0 0 0 0 0 0 0 0 0 0 0 0 0 0 0 0 0 0 0 0 0 0 0 0 0 0 0 0 0 -0 -0 -0
0 0 0 0 0 0 0 0 0 0 0 0 0 0 0 0 0 0 0 0 0 0 0 0 0 0 0 0 0 0 0 0 0 0 0 0 0 0 0 0 0 0 0 0 0 0 0 0 0 0 0 -0 -0 -0
0 0 0 0 0 0 0 0 0 0 0 0 0 0 0 0 0 0 0 0 0 0 0 0 0 0 0 0 0 0 0 0 0 0 0 0 0 0 0 0 0 0 0 0 0 0 0 0 0 0 0 -0 -0 -0
0 0 0 0 0 0 0 0 0 0 0 0 0 0 0 0 0 0 0 0 0 0 0 0 0 0 0 0 0 0 0 0 0 0 0 0 0 0 0 0 0 0 0 0 0 0 0 0 0 0 0 -0 -0 -0
0 0 0 0 0 0 0 0 0 0 0 0 0 0 0 0 0 0 0 0 0 0 0 0 0 0 0 0 0 0 0 0 0 0 0 0 0 0 0 0 0 0 0 0 0 0 0 0 0 0 0 -0 -0 -0
0 0 0 0 0 0 0 0 0 0 0 0 0 0 0 0 0 0 0 0 0 0 0 0 0 0 0 0 0 0 0 0 0 0 0 0 0 0 0 0 0 0 0 0 0 0 0 0 0 0 0 -0 -0 -0
0 0 0 0 0 0 0 0 0 0 0 0 0 0 0 0 0 0 0 0 0 0 0 0 0 0 0 0 0 0 0 0 0 0 0 0 0 0 0 0 0 0 0 0 0 0 0 0 0 0 0 0 -0 -0
0 0 0 0 0 0 0 0 0 0 0 0 0 0 0 0 0 0 0 0 0 0 0 0 0 0 0 0 0 0 0 0 0 0 0 0 0 0 0 0 0 0 0 0 0 0 0 0 0 0 0 0 -0 -0
0 0 0 0 0 0 0 0 0 0 0 0 0 0 0 0 0 0 0 0 0 0 0 0 0 0 0 0 0 0 0 0 0 0 0 0 0 0 0 0 0 0 0 0 0 0 0 0 0 0 0 0 -0 -0
0 0 0 0 0 0 0 0 0 0 0 0 0 0 0 0 0 0 0 -0 -0 0 0 0 0 0 0 -0 0 -0 -0 -0 0 0 0 0 0 0 0 0 0 0 0 0 0 0 0 0 0 0 0 0 0 0
0 0 0 0 0 0 0 0 0 0 0 0 0 0 0 0 0 0 0 0 0 -0 -0 -0 0 0 -0 -0 -0 -0 0 0 0 0 0 0 0 0 0 0 0 0 0 0 0 0 0 0 0 0 0 0 0 0
0 0 0 0 0 0 0 0 0 0 0 0 0 0 0 0 0 0 0 -0 -0 0 0 -0 -0 0 0 -0 -0 0 0 0 0 0 0 0 0 0 0 0 0 0 0 0 0 0 0 0 0 0 0 0 0 0
0 0 0 0 0 0 0 0 0 0 0 0 0 0 0 0 0 0 -0 -0 -0 0 0 0 -0 0 0 0 0 0 0 0 0 0 0 0 0 0 0 0 0 0 0 0 0 0 0 0 0 0 0 0 0 0
0 0 0 0 0 0 0 0 0 0 0 0 0 0 0 0 0 0 0 0 -0 -0 -0 -0 0 0 0 0 0 0 0 0 0 0 0 0 0 0 0 0 0 0 0 0 0 0 0 0 0 0 0 0 0 0
0 0 0 0 0 0 0 0 0 0 0 0 0 0 0 0 0 0 -0 -0 -0 0 0 0 0 0 0 -0 -0 -0 -0 0 -0 0 0 0 0 0 0 0 0 0 0 0 0 0 0 0 0 0 0 0 0 0
0 0 0 0 0 0 0 0 0 0 0 0 0 0 0 0 0 -0 -0 -0 -0 -0 -0 0 0 0 0 0 0 0 0 0 0 0 0 0 0 0 0 0 0 0 0 0 0 0 0 0 0 0 0 0 0 0
0 0 0 0 0 0 0 0 0 0 0 0 0 0 0 0 0 -0 -0 -0 -0 0 0 -0 0 0 0 0 0 0 0 0 0 0 0 0 0 0 0 0 0 0 0 0 0 0 0 0 0 0 0 0 0 0
Wind_Speed_500mb
110 105 97 89 81 74 67 61 57 51 45 41 40 38 34 32 33 22 40 28 17 28 28 15 15 14 13 11 9 19 13 3 6 6 6 5 3 7 3 3 4 8 8 4 5 5 7 11 7 6 17 54 53 61
115 109 102 94 86 78 71 67 61 55 49 44 39 34 31 27 29 26 33 29 33 23 29 25 21 16 10 11 10 25 5 9 11 7 2 6 3 2 4 4 3 2 11 7 13 9 4 10 17 26 49 57 62 70
118 112 106 97 89 82 76 72 66 59 52 45 40 35 30 26 26 25 31 29 23 52 36 20 17 13 10 10 12 9 9 11 13 10 12 6 5 6 6 8 4 3 8 4 4 3 13 36 9 48 49 52 60 62
122 115 109 101 93 86 80 75 70 63 55 48 41 32 26 24 23 22 26 29 18 26 17 10 11 10 5 6 10 10 5 16 19 15 7 8 5 10 5 3 4 5 11 6 6 15 29 9 46 47 52 50 54 57
125 118 111 104 97 89 82 78 74 66 59 49 40 34 28 23 20 24 23 24 19 10 17 19 19 14 12 7 5 10 12 19 20 7 7 2 7 8 4 2 3 11 9 6 8 9 14 41 50 50 53 53 53 55
127 121 113 106 99 93 86 80 78 70 62 49 38 30 25 28 25 24 11 15 18 20 16 9 13 12 12 11 15 17 19 17 6 8 9 8 5 3 5 4 5 11 8 4 8 21 31 43 38 45 43 48 50 54
130 123 114 108 102 96 90 85 80 73 63 53 46 38 32 25 29 17 8 25 28 21 11 15 8 14 18 16 17 14 10 8 3 7 6 7 6 6 6 6 21 12 7 7 11 28 32 26 45 35 38 42 47 53
133 125 118 111 104 98 93 89 85 79 69 60 51 48 43 36 30 15 19 35 33 12 11 14 3 10 20 9 8 7 6 6 5 5 7 6 8 2 4 15 24 9 5 7 16 22 27 36 24 30 36 41 50 58
133 128 121 114 107 102 97 93 91 83 74 64 58 53 43 32 19 24 35 35 25 9 16 9 12 8 24 11 9 7 5 4 4 4 4 9 0 6 14 24 23 12 3 13 20 25 28 16 25 32 39 44 53 63
135 128 122 117 112 107 101 98 93 86 79 72 61 25 16 26 30 37 19 13 8 4 8 9 18 6 21 10 6 7 3 2 2 4 10 5 6 18 19 22 14 8 6 12 25 31 23 20 32 38 41 44 47 56
137 130 123 120 117 115 110 104 96 94 90 73 27 12 51 61 23 12 11 9 10 4 14 14 16 22 18 9 9 6 6 2 4 5 5 4 6 17 33 24 17 9 3 13 20 17 12 22 30 36 41 44 48 56
137 131 127 125 123 119 117 113 112 106 92 69 44 64 55 13 10 10 4 6 8 12 22 24 24 24 17 12 12 10 5 2 5 16 3 6 9 30 36 29 18 8 3 10 6 8 11 17 22 28 34 41 45 49
142 133 132 131 127 124 118 113 104 106 93 60 21 25 16 10 6 17 20 8 6 31 31 38 27 17 14 7 13 8 7 6 22 4 7 8 21 40 35 25 16 10 2 6 5 10 13 16 20 26 33 35 39 44
138 136 137 132 126 121 112 119 121 111 64 23 23 13 16 11 13 13 11 11 22 39 73 66 27 14 12 9 9 8 5 8 2 5 11 10 45 43 32 24 18 11 4 5 6 11 15 17 22 26 29 35 40 46
135 135 130 129 122 117 123 121 117 111 32 18 20 16 16 12 12 29 36 39 45 86 85 49 24 16 10 8 6 8 5 8 12 9 6 33 50 40 31 25 19 13 7 4 8 12 17 20 24 25 28 32 37 42
133 120 129 129 124 123 131 141 104 69 36 16 13 7 22 24 24 38 51 65 80 85 66 22 12 7 6 10 8 13 16 12 7 11 20 54 50 37 28 21 17 12 5 6 11 14 19 22 24 25 26 30 36 43
145 105 140 134 129 133 156 114 55 18 13 14 8 12 18 24 41 50 61 69 92 67 12 15 12 10 20 6 9 9 10 7 22 30 56 54 44 34 21 15 14 11 7 11 13 14 17 20 22 22 24 28 32 38
127 108 140 173 178 142 81 30 19 14 7 8 10 26 22 41 58 56 60 83 66 40 19 9 20 8 10 13 7 16 17 30 37 51 53 44 34 24 13 10 8 10 11 12 14 15 16 18 19 20 22 26 30 35
115 118 180 189 173 106 19 11 14 13 11 16 40 46 47 55 46 57 69 67 57 26 35 12 9 7 6 11 22 39 44 49 54 56 47 38 27 19 14 7 5 9 11 13 15 15 14 17 18 19 21 24 29 34
140 171 178 139 103 24 17 14 19 19 10 14 37 40 42 43 65 81 68 56 50 24 7 5 5 10 17 30 47 53 54 54 54 49 41 35 27 21 13 9 11 13 15 16 14 15 15 15 16 16 19 20 24 28
147 128 113 83 64 32 19 17 15 22 22 19 42 42 30 55 56 57 48 43 21 6 8 11 29 38 37 39 47 50 48 42 39 34 34 30 23 17 17 17 16 18 19 22 22 18 17 16 14 14 17 17 20 25
109 108 94 66 24 18 18 12 27 27 17 31 26 28 23 27 30 30 28 14 9 10 21 46 46 45 43 41 41 37 37 36 32 27 26 24 25 24 22 20 20 20 20 18 18 15 15 14 11 11 14 15 18 22
104 86 40 20 18 16 11 20 12 12 12 14 29 12 12 11 18 25 10 8 9 29 43 46 42 37 36 34 31 29 26 23 21 20 20 20 20 22 21 19 18 20 17 15 17 15 13 13 11 12 12 12 15 19
66 21 15 13 14 13 13 9 11 14 22 13 8 10 9 13 20 6 5 13 27 42 45 44 41 39 33 30 28 25 21 19 19 20 20 20 22 22 22 21 22 21 19 18 18 16 15 15 12 12 11 11 13 15
22 15 15 14 14 12 10 6 6 10 11 12 8 7 11 15 5 5 8 20 42 51 48 44 40 36 36 34 31 29 25 22 20 17 17 16 16 16 15 16 18 20 21 20 18 16 15 16 15 11 11 10 10 12
15 18 8 9 9 10 10 10 10 17 16 9 8 18 15 9 6 8 13 45 57 60 57 55 50 43 37 34 34 30 26 21 17 14 14 14 13 14 14 16 17 18 18 16 17 18 16 18 15 13 14 10 8 9
9 6 12 12 21 32 21 43 51 24 9 9 10 12 7 9 8 11 32 54 60 58 52 49 46 42 41 38 33 29 25 20 14 8 6 6 10 14 17 18 16 15 17 15 18 17 17 17 16 16 16 11 8 7
11 12 12 25 43 50 52 36 10 8 9 20 26 9 14 15 8 22 36 52 51 51 49 45 40 37 36 32 30 29 24 18 14 12 10 8 8 9 12 16 18 21 20 19 18 17 19 18 18 18 15 13 10 8
17 21 48 29 45 33 12 8 10 9 29 30 11 7 10 10 36 51 57 51 50 55 56 53 51 47 41 37 32 27 24 23 22 20 16 14 14 11 10 13 17 19 22 22 19 17 19 20 19 17 15 14 13 10
14 20 20 14 11 7 7 9 20 40 32 27 21 33 38 46 54 56 54 51 49 47 42 39 40 40 38 36 35 36 35 35 33 31 29 25 13 10 13 12 14 18 21 26 26 23 24 26 25 24 21 19 16 13
15 17 16 16 13 13 27 42 45 37 35 34 55 62 52 43 48 47 43 39 38 38 37 36 35 34 35 37 40 41 42 40 37 36 35 32 31 28 23 19 18 21 22 25 28 26 26 26 26 25 23 22 20 17
12 13 15 9 10 31 42 26 18 22 29 42 37 44 43 29 22 39 43 41 37 32 26 22 24 29 30 33 35 37 38 36 39 39 40 43 41 40 39 35 31 28 28 30 30 31 29 28 29 29 27 25 23 21
19 41 37 20 11 10 12 14 11 10 13 11 13 20 21 17 13 27 37 38 32 23 19 19 22 28 33 36 36 35 34 33 33 36 39 41 42 44 47 50 48 43 38 34 35 36 37 36 35 33 31 29 27 24
Wind_Direction_500mb
187 187 186 186 183 181 179 176 171 167 161 154 147 142 132 124 120 128 113 113 111 114 127 135 133 134 135 157 139 153 117 195 83 83 133 220 157 212 112 195 197 171 133 205 87 46 326 347 354 103 282 309 315 321
188 186 185 186 184 182 179 178 174 170 166 161 156 148 144 137 131 133 120 117 121 116 119 122 114 121 129 137 142 160 135 148 165 91 93 124 136 126 124 232 78 314 178 183 173 223 242 316 336 332 333 324 327 328
188 186 185 185 185 183 181 180 178 174 170 167 164 158 149 142 139 133 135 131 129 110 109 116 106 114 122 159 166 150 180 184 178 148 138 140 132 130 159 237 167 233 183 158 43 324 325 317 292 327 328 327 332 334
189 187 186 185 186 185 183 181 180 177 175 173 172 165 154 145 141 138 144 143 136 119 109 79 109 107 106 180 202 208 246 187 162 136 100 122 138 187 202 179 158 184 158 172 273 301 321 198 328 329 331 332 335 335
189 188 187 186 186 186 185 183 183 180 179 179 172 162 158 144 142 145 154 156 157 142 122 125 116 82 64 64 190 192 189 175 152 113 80 179 131 141 81 92 254 188 177 152 231 306 283 302 324 327 330 332 337 339
190 189 189 187 186 186 185 184 185 184 182 180 176 172 168 161 161 153 148 172 161 140 116 114 124 115 111 110 126 137 150 146 135 102 98 109 132 164 104 196 193 167 183 235 281 306 306 314 319 327 327 333 340 341
191 189 188 187 186 186 185 185 185 187 184 185 181 184 179 177 172 177 180 160 162 156 112 105 103 152 146 145 121 114 118 105 85 94 95 133 157 191 112 191 179 174 203 254 270 318 323 330 323 336 333 340 341 340
191 190 189 187 187 186 186 186 186 188 189 189 187 183 174 172 175 166 156 155 155 141 111 110 76 148 166 146 117 126 117 117 69 100 120 135 148 294 262 219 169 193 242 276 317 322 319 321 325 333 341 344 343 343
191 190 189 188 188 187 187 187 188 187 190 190 190 179 165 165 156 156 157 156 162 139 119 114 145 191 161 131 120 133 123 75 124 123 139 159 175 224 229 188 188 194 261 315 328 327 335 329 338 346 346 344 343 342
191 191 190 189 189 189 188 189 189 186 188 186 172 162 144 152 143 144 139 146 151 153 106 110 132 138 157 132 103 117 99 128 104 224 152 122 242 236 188 177 180 194 299 324 327 339 350 355 350 348 343 344 343 341
193 191 190 191 191 192 191 189 187 186 185 171 153 115 138 136 132 142 134 143 170 159 175 137 151 130 145 137 134 150 161 204 86 252 129 247 269 203 183 187 193 214 275 321 328 333 338 340 340 337 342 344 348 348
193 192 191 193 194 195 193 190 189 190 185 180 170 138 137 157 132 119 115 149 198 204 158 140 138 120 132 138 115 145 117 93 202 148 85 257 248 170 174 177 188 197 248 333 5 355 350 346 341 339 341 347 355 357
195 193 194 195 195 196 194 194 193 193 182 158 132 136 155 153 143 184 180 224 199 166 164 151 133 129 118 119 99 118 94 202 135 98 234 226 177 168 168 174 173 180 266 356 324 337 343 349 351 345 348 350 350 354
193 194 196 195 196 196 195 196 195 193 173 168 146 141 204 182 221 190 174 161 160 158 148 144 121 122 123 100 130 117 204 121 154 224 232 203 176 171 171 169 171 171 211 255 309 335 340 339 347 348 346 348 353 353
191 194 194 194 195 196 198 197 194 185 171 153 151 200 196 187 151 171 156 137 147 146 142 126 85 101 104 112 172 116 113 226 209 226 224 172 170 172 172 173 173 183 210 274 308 322 336 339 341 344 344 353 353 356
189 190 194 196 194 197 197 182 168 178 160 144 160 140 148 130 138 148 153 136 148 145 138 105 108 108 152 143 144 198 162 214 233 199 166 160 166 172 171 172 178 189 215 299 303 322 335 336 339 346 350 350 356 359
187 181 189 194 193 194 185 172 166 140 110 170 156 195 188 146 158 153 151 149 154 147 120 136 128 175 125 135 198 187 196 197 165 155 157 162 165 163 166 177 190 208 256 307 312 308 321 336 341 341 345 356 355 359
180 182 181 173 168 156 154 159 131 102 112 108 142 161 149 142 139 140 147 156 158 148 139 137 128 162 177 173 199 190 159 143 147 153 157 158 155 157 155 159 196 233 265 289 299 302 311 327 334 340 344 348 350 354
180 176 171 170 167 160 121 97 97 104 97 111 113 123 121 124 141 144 143 149 151 158 125 118 117 167 191 197 165 158 151 149 149 157 158 160 164 166 169 190 238 251 256 268 287 301 300 316 328 336 339 341 347 351
166 167 162 158 165 121 92 103 103 99 116 110 115 116 114 130 134 137 143 153 155 156 91 86 153 166 159 154 155 146 145 148 153 158 164 171 180 184 205 248 267 259 254 258 271 293 293 300 314 328 325 331 343 350
135 142 149 150 101 83 95 117 103 114 109 109 116 109 100 124 130 143 149 150 154 119 105 120 136 135 129 136 149 149 152 158 163 168 172 180 191 213 249 260 254 258 258 256 264 276 279 285 306 322 317 326 338 348
132 145 130 121 82 80 79 85 118 119 93 112 101 109 105 117 140 149 134 125 103 129 145 149 141 138 136 133 142 156 160 165 171 176 182 199 220 237 244 246 246 255 255 254 261 257 260 273 293 305 303 318 331 341
131 132 84 63 83 77 68 103 79 81 109 118 117 83 98 118 146 137 106 123 142 154 155 157 149 145 146 148 154 162 172 186 200 214 222 227 229 234 236 239 249 247 243 249 250 245 261 277 296 287 290 301 319 331
131 72 68 74 79 107 108 70 86 108 114 110 97 104 119 133 141 102 126 165 158 158 161 162 163 159 160 164 169 174 180 186 193 203 215 226 236 239 242 242 238 242 244 244 245 244 244 249 264 262 270 282 304 323
80 39 80 67 89 92 100 83 61 93 113 106 91 104 144 144 119 171 174 165 166 169 169 167 169 173 168 165 167 170 173 182 190 199 210 218 219 215 217 219 228 237 242 242 236 237 234 250 251 243 247 260 288 318
62 31 65 101 114 113 124 117 119 124 112 98 108 133 146 137 133 185 195 175 173 174 176 175 172 171 171 170 164 163 164 164 166 185 202 205 212 212 213 226 234 232 235 232 231 229 237 247 242 233 234 244 272 306
88 68 61 87 111 123 97 109 129 122 103 123 149 146 138 137 185 198 163 172 175 177 175 175 176 172 166 164 164 166 165 159 159 162 163 183 216 228 234 239 240 220 227 225 217 220 236 242 234 229 230 237 255 282
82 77 102 105 94 113 120 127 122 129 133 144 140 160 140 163 171 155 160 167 175 172 170 172 171 168 168 166 167 168 167 168 178 196 207 220 232 245 250 242 226 216 214 212 217 218 222 227 226 226 229 239 245 257
77 97 107 85 109 115 106 91 105 123 142 154 120 145 135 109 136 150 155 157 160 166 170 173 175 176 177 179 186 192 199 207 211 215 227 234 240 245 254 243 232 225 220 222 223 222 219 221 223 223 225 236 241 245
60 87 100 76 71 71 77 108 124 137 135 120 110 120 120 127 139 148 152 155 160 166 171 174 181 189 196 204 212 218 223 229 234 236 240 244 255 252 248 250 240 234 231 224 223 225 222 221 222 221 223 230 236 240
90 89 73 68 78 76 111 121 122 124 116 119 134 131 127 132 141 150 153 153 157 164 170 179 189 198 208 215 222 227 231 234 240 246 248 252 247 250 259 255 250 238 232 222 221 229 231 229 227 225 225 223 229 235
61 78 105 91 93 115 120 107 86 101 109 122 122 129 131 135 144 166 170 174 178 183 188 201 215 224 230 233 235 240 247 247 249 253 254 253 250 247 245 246 248 244 237 230 229 229 231 229 226 226 225 222 223 231
79 96 101 97 110 105 119 103 82 79 83 103 125 133 139 146 147 177 190 196 200 210 221 227 231 231 235 241 242 242 244 245 247 249 251 252 251 246 241 239 238 238 237 234 233 232 232 230 227 223 224 224 224 225
Wind_Speed_850mb
110 105 97 89 81 74 67 61 57 51 45 41 40 38 34 32 33 22 40 28 17 28 28 15 15 14 13 11 9 19 13 3 6 6 6 5 3 7 3 3 4 8 8 4 5 5 7 11 7 6 17 54 53 61
115 109 102 94 86 78 71 67 61 55 49 44 39 34 31 27 29 26 33 29 33 23 29 25 21 16 10 11 10 25 5 9 11 7 2 6 3 2 4 4 3 2 11 7 13 9 4 10 17 26 49 57 62 70
118 112 106 97 89 82 76 72 66 59 52 45 40 35 30 26 26 25 31 29 23 52 36 20 17 13 10 10 12 9 9 11 13 10 12 6 5 6 6 8 4 3 8 4 4 3 13 36 9 48 49 52 60 62
122 115 109 101 93 86 80 75 70 63 55 48 41 32 26 24 23 22 26 29 18 26 17 10 11 10 5 6 10 10 5 16 19 15 7 8 5 10 5 3 4 5 11 6 6 15 29 9 46 47 52 50 54 57
125 118 111 104 97 89 82 78 74 66 59 49 40 34 28 23 20 24 23 24 19 10 17 19 19 14 12 7 5 10 12 19 20 7 7 2 7 8 4 2 3 11 9 6 8 9 14 41 50 50 53 53 53 55
127 121 113 106 99 93 86 80 78 70 62 49 38 30 25 28 25 24 11 15 18 20 16 9 13 12 12 11 15 17 19 17 6 8 9 8 5 3 5 4 5 11 8 4 8 21 31 43 38 45 43 48 50 54
130 123 114 108 102 96 90 85 80 73 63 53 46 38 32 25 29 17 8 25 28 21 11 15 8 14 18 16 17 14 10 8 3 7 6 7 6 6 6 6 21 12 7 7 11 28 32 26 45 35 38 42 47 53
133 125 118 111 104 98 93 89 85 79 69 60 51 48 43 36 30 15 19 35 33 12 11 14 3 10 20 9 8 7 6 6 5 5 7 6 8 2 4 15 24 9 5 7 16 22 27 36 24 30 36 41 50 58
133 128 121 114 107 102 97 93 91 83 74 64 58 53 43 32 19 24 35 35 25 9 16 9 12 8 24 11 9 7 5 4 4 4 4 9 0 6 14 24 23 12 3 13 20 25 28 16 25 32 39 44 53 63
135 128 122 117 112 107 101 98 93 86 79 72 61 25 16 26 30 37 19 13 8 4 8 9 18 6 21 10 6 7 3 2 2 4 10 5 6 18 19 22 14 8 6 12 25 31 23 20 32 38 41 44 47 56
137 130 123 120 117 115 110 104 96 94 90 73 27 12 51 61 23 12 11 9 10 4 14 14 16 22 18 9 9 6 6 2 4 5 5 4 6 17 33 24 17 9 3 13 20 17 12 22 30 36 41 44 48 56
137 131 127 125 123 119 117 113 112 106 92 69 44 64 55 13 10 10 4 6 8 12 22 24 24 24 17 12 12 10 5 2 5 16 3 6 9 30 36 29 18 8 3 10 6 8 11 17 22 28 34 41 45 49
142 133 132 131 127 124 118 113 104 106 93 60 21 25 16 10 6 17 20 8 6 31 31 38 27 17 14 7 13 8 7 6 22 4 7 8 21 40 35 25 16 10 2 6 5 10 13 16 20 26 33 35 39 44
138 136 137 132 126 121 112 119 121 111 64 23 23 13 16 11 13 13 11 11 22 39 73 66 27 14 12 9 9 8 5 8 2 5 11 10 45 43 32 24 18 11 4 5 6 11 15 17 22 26 29 35 40 46
135 135 130 129 122 117 123 121 117 111 32 18 20 16 16 12 12 29 36 39 45 86 85 49 24 16 10 8 6 8 5 8 12 9 6 33 50 40 31 25 19 13 7 4 8 12 17 20 24 25 28 32 37 42
133 120 129 129 124 123 131 141 104 69 36 16 13 7 22 24 24 38 51 65 80 85 66 22 12 7 6 10 8 13 16 12 7 11 20 54 50 37 28 21 17 12 5 6 11 14 19 22 24 25 26 30 36 43
145 105 140 134 129 133 156 114 55 18 13 14 8 12 18 24 41 50 61 69 92 67 12 15 12 10 20 6 9 9 10 7 22 30 56 54 44 34 21 15 14 11 7 11 13 14 17 20 22 22 24 28 32 38
127 108 140 173 178 142 81 30 19 14 7 8 10 26 22 41 58 56 60 83 66 40 19 9 20 8 10 13 7 16 17 30 37 51 53 44 34 24 13 10 8 10 11 12 14 15 16 18 19 20 22 26 30 35
115 118 180 189 173 106 19 11 14 13 11 16 40 46 47 55 46 57 69 67 57 26 35 12 9 7 6 11 22 39 44 49 54 56 47 38 27 19 14 7 5 9 11 13 15 15 14 17 18 19 21 24 29 34
140 171 178 139 103 24 17 14 19 19 10 14 37 40 42 43 65 81 68 56 50 24 7 5 5 10 17 30 47 53 54 54 54 49 41 35 27 21 13 9 11 13 15 16 14 15 15 15 16 16 19 20 24 28
147 128 113 83 64 32 19 17 15 22 22 19 42 42 30 55 56 57 48 43 21 6 8 11 29 38 37 39 47 50 48 42 39 34 34 30 23 17 17 17 16 18 19 22 22 18 17 16 14 14 17 17 20 25
109 108 94 66 24 18 18 12 27 27 17 31 26 28 23 27 30 30 28 14 9 10 21 46 46 45 43 41 41 37 37 36 32 27 26 24 25 24 22 20 20 20 20 18 18 15 15 14 11 11 14 15 18 22
104 86 40 20 18 16 11 20 12 12 12 14 29 12 12 11 18 25 10 8 9 29 43 46 42 37 36 34 31 29 26 23 21 20 20 20 20 22 21 19 18 20 17 15 17 15 13 13 11 12 12 12 15 19
66 21 15 13 14 13 13 9 11 14 22 13 8 10 9 13 20 6 5 13 27 42 45 44 41 39 33 30 28 25 21 19 19 20 20 20 22 22 22 21 22 21 19 18 18 16 15 15 12 12 11 11 13 15
22 15 15 14 14 12 10 6 6 10 11 12 8 7 11 15 5 5 8 20 42 51 48 44 40 36 36 34 31 29 25 22 20 17 17 16 16 16 15 16 18 20 21 20 18 16 15 16 15 11 11 10 10 12
15 18 8 9 9 10 10 10 10 17 16 9 8 18 15 9 6 8 13 45 57 60 57 55 50 43 37 34 34 30 26 21 17 14 14 14 13 14 14 16 17 18 18 16 17 18 16 18 15 13 14 10 8 9
9 6 12 12 21 32 21 43 51 24 9 9 10 12 7 9 8 11 32 54 60 58 52 49 46 42 41 38 33 29 25 20 14 8 6 6 10 14 17 18 16 15 17 15 18 17 17 17 16 16 16 11 8 7
11 12 12 25 43 50 52 36 10 8 9 20 26 9 14 15 8 22 36 52 51 51 49 45 40 37 36 32 30 29 24 18 14 12 10 8 8 9 12 16 18 21 20 19 18 17 19 18 18 18 15 13 10 8
17 21 48 29 45 33 12 8 10 9 29 30 11 7 10 10 36 51 57 51 50 55 56 53 51 47 41 37 32 27 24 23 22 20 16 14 14 11 10 13 17 19 22 22 19 17 19 20 19 17 15 14 13 10
14 20 20 14 11 7 7 9 20 40 32 27 21 33 38 46 54 56 54 51 49 47 42 39 40 40 38 36 35 36 35 35 33 31 29 25 13 10 13 12 14 18 21 26 26 23 24 26 25 24 21 19 16 13
15 17 16 16 13 13 27 42 45 37 35 34 55 62 52 43 48 47 43 39 38 38 37 36 35 34 35 37 40 41 42 40 37 36 35 32 31 28 23 19 18 21 22 25 28 26 26 26 26 25 23 22 20 17
12 13 15 9 10 31 42 26 18 22 29 42 37 44 43 29 22 39 43 41 37 32 26 22 24 29 30 33 35 37 38 36 39 39 40 43 41 40 39 35 31 28 28 30 30 31 29 28 29 29 27 25 23 21
19 41 37 20 11 10 12 14 11 10 13 11 13 20 21 17 13 27 37 38 32 23 19 19 22 28 33 36 36 35 34 33 33 36 39 41 42 44 47 50 48 43 38 34 35 36 37 36 35 33 31 29 27 24
Wind_Direction_850mb
187 187 186 186 183 181 179 176 171 167 161 154 147 142 132 124 120 128 113 113 111 114 127 135 133 134 135 157 139 153 117 195 83 83 133 220 157 212 112 195 197 171 133 205 87 46 326 347 354 103 282 309 315 321
188 186 185 186 184 182 179 178 174 170 166 161 156 148 144 137 131 133 120 117 121 116 119 122 114 121 129 137 142 160 135 148 165 91 93 124 136 126 124 232 78 314 178 183 173 223 242 316 336 332 333 324 327 328
188 186 185 185 185 183 181 180 178 174 170 167 164 158 149 142 139 133 135 131 129 110 109 116 106 114 122 159 166 150 180 184 178 148 138 140 132 130 159 237 167 233 183 158 43 324 325 317 292 327 328 327 332 334
189 187 186 185 186 185 183 181 180 177 175 173 172 165 154 145 141 138 144 143 136 119 109 79 109 107 106 180 202 208 246 187 162 136 100 122 138 187 202 179 158 184 158 172 273 301 321 198 328 329 331 332 335 335
189 188 187 186 186 186 185 183 183 180 179 179 172 162 158 144 142 145 154 156 157 142 122 125 116 82 64 64 190 192 189 175 152 113 80 179 131 141 81 92 254 188 177 152 231 306 283 302 324 327 330 332 337 339
190 189 189 187 186 186 185 184 185 184 182 180 176 172 168 161 161 153 148 172 161 140 116 114 124 115 111 110 126 137 150 146 135 102 98 109 132 164 104 196 193 167 183 235 281 306 306 314 319 327 327 333 340 341
191 189 188 187 186 186 185 185 185 187 184 185 181 184 179 177 172 177 180 160 162 156 112 105 103 152 146 145 121 114 118 105 85 94 95 133 157 191 112 191 179 174 203 254 270 318 323 330 323 336 333 340 341 340
191 190 189 187 187 186 186 186 186 188 189 189 187 183 174 172 175 166 156 155 155 141 111 110 76 148 166 146 117 126 117 117 69 100 120 135 148 294 262 219 169 193 242 276 317 322 319 321 325 333 341 344 343 343
191 190 189 188 188 187 187 187 188 187 190 190 190 179 165 165 156 156 157 156 162 139 119 114 145 191 161 131 120 133 123 75 124 123 139 159 175 224 229 188 188 194 261 315 328 327 335 329 338 346 346 344 343 342
191 191 190 189 189 189 188 189 189 186 188 186 172 162 144 152 143 144 139 146 151 153 106 110 132 138 157 132 103 117 99 128 104 224 152 122 242 236 188 177 180 194 299 324 327 339 350 355 350 348 343 344 343 341
193 191 190 191 191 192 191 189 187 186 185 171 153 115 138 136 132 142 134 143 170 159 175 137 151 130 145 137 134 150 161 204 86 252 129 247 269 203 183 187 193 214 275 321 328 333 338 340 340 337 342 344 348 348
193 192 191 193 194 195 193 190 189 190 185 180 170 138 137 157 132 119 115 149 198 204 158 140 138 120 132 138 115 145 117 93 202 148 85 257 248 170 174 177 188 197 248 333 5 355 350 346 341 339 341 347 355 357
195 193 194 195 195 196 194 194 193 193 182 158 132 136 155 153 143 184 180 224 199 166 164 151 133 129 118 119 99 118 94 202 135 98 234 226 177 168 168 174 173 180 266 356 324 337 343 349 351 345 348 350 350 354
193 194 196 195 196 196 195 196 195 193 173 168 146 141 204 182 221 190 174 161 160 158 148 144 121 122 123 100 130 117 204 121 154 224 232 203 176 171 171 169 171 171 211 255 309 335 340 339 347 348 346 348 353 353
191 194 194 194 195 196 198 197 194 185 171 153 151 200 196 187 151 171 156 137 147 146 142 126 85 101 104 112 172 116 113 226 209 226 224 172 170 172 172 173 173 183 210 274 308 322 336 339 341 344 344 353 353 356
189 190 194 196 194 197 197 182 168 178 160 144 160 140 148 130 138 148 153 136 148 145 138 105 108 108 152 143 144 198 162 214 233 199 166 160 166 172 171 172 178 189 215 299 303 322 335 336 339 346 350 350 356 359
187 181 189 194 193 194 185 172 166 140 110 170 156 195 188 146 158 153 151 149 154 147 120 136 128 175 125 135 198 187 196 197 165 155 157 162 165 163 166 177 190 208 256 307 312 308 321 336 341 341 345 356 355 359
180 182 181 173 168 156 154 159 131 102 112 108 142 161 149 142 139 140 147 156 158 148 139 137 128 162 177 173 199 190 159 143 147 153 157 158 155 157 155 159 196 233 265 289 299 302 311 327 334 340 344 348 350 354
180 176 171 170 167 160 121 97 97 104 97 111 113 123 121 124 141 144 143 149 151 158 125 118 117 167 191 197 165 158 151 149 149 157 158 160 164 166 169 190 238 251 256 268 287 301 300 316 328 336 339 341 347 351
166 167 162 158 165 121 92 103 103 99 116 110 115 116 114 130 134 137 143 153 155 156 91 86 153 166 159 154 155 146 145 148 153 158 164 171 180 184 205 248 267 259 254 258 271 293 293 300 314 328 325 331 343 350
135 142 149 150 101 83 95 117 103 114 109 109 116 109 100 124 130 143 149 150 154 119 105 120 136 135 129 136 149 149 152 158 163 168 172 180 191 213 249 260 254 258 258 256 264 276 279 285 306 322 317 326 338 348
132 145 130 121 82 80 79 85 118 119 93 112 101 109 105 117 140 149 134 125 103 129 145 149 141 138 136 133 142 156 160 165 171 176 182 199 220 237 244 246 246 255 255 254 261 257 260 273 293 305 303 318 331 341
131 132 84 63 83 77 68 103 79 81 109 118 117 83 98 118 146 137 106 123 142 154 155 157 149 145 146 148 154 162 172 186 200 214 222 227 229 234 236 239 249 247 243 249 250 245 261 277 296 287 290 301 319 331
131 72 68 74 79 107 108 70 86 108 114 110 97 104 119 133 141 102 126 165 158 158 161 162 163 159 160 164 169 174 180 186 193 203 215 226 236 239 242 242 238 242 244 244 245 244 244 249 264 262 270 282 304 323
80 39 80 67 89 92 100 83 61 93 113 106 91 104 144 144 119 171 174 165 166 169 169 167 169 173 168 165 167 170 173 182 190 199 210 218 219 215 217 219 228 237 242 242 236 237 234 250 251 243 247 260 288 318
62 31 65 101 114 113 124 117 119 124 112 98 108 133 146 137 133 185 195 175 173 174 176 175 172 171 171 170 164 163 164 164 166 185 202 205 212 212 213 226 234 232 235 232 231 229 237 247 242 233 234 244 272 306
88 68 61 87 111 123 97 109 129 122 103 123 149 146 138 137 185 198 163 172 175 177 175 175 176 172 166 164 164 166 165 159 159 162 163 183 216 228 234 239 240 220 227 225 217 220 236 242 234 229 230 237 255 282
82 77 102 105 94 113 120 127 122 129 133 144 140 160 140 163 171 155 160 167 175 172 170 172 171 168 168 166 167 168 167 168 178 196 207 220 232 245 250 242 226 216 214 212 217 218 222 227 226 226 229 239 245 257
77 97 107 85 109 115 106 91 105 123 142 154 120 145 135 109 136 150 155 157 160 166 170 173 175 176 177 179 186 192 199 207 211 215 227 234 240 245 254 243 232 225 220 222 223 222 219 221 223 223 225 236 241 245
60 87 100 76 71 71 77 108 124 137 135 120 110 120 120 127 139 148 152 155 160 166 171 174 181 189 196 204 212 218 223 229 234 236 240 244 255 252 248 250 240 234 231 224 223 225 222 221 222 221 223 230 236 240
90 89 73 68 78 76 111 121 122 124 116 119 134 131 127 132 141 150 153 153 157 164 170 179 189 198 208 215 222 227 231 234 240 246 248 252 247 250 259 255 250 238 232 222 221 229 231 229 227 225 225 223 229 235
61 78 105 91 93 115 120 107 86 101 109 122 122 129 131 135 144 166 170 174 178 183 188 201 215 224 230 233 235 240 247 247 249 253 254 253 250 247 245 246 248 244 237 230 229 229 231 229 226 226 225 222 223 231
79 96 101 97 110 105 119 103 82 79 83 103 125 133 139 146 147 177 190 196 200 210 221 227 231 231 235 241 242 242 244 245 247 249 251 252 251 246 241 239 238 238 237 234 233 232 232 230 227 223 224 224 224 225